STARLINK-34990

Satellite information

Favourite Embed

Satellite Type and Status

PAYLOADIN ORBIT

Key statistics

Satellite STARLINK-34990 at a glance.

Uptime

30

Days in orbit

Revolutions

≈ 15.4

Per day

Orbit

SSO

Sun Synchronous Orbit

Inclination

97.6

Latest

Satellite identification and parameters

Extended collection of information and parameters for STARLINK-34990.

Object identification

Identified? True

Debris? False

Object name: STARLINK-34990

International designator: 2025-179K

Object number (NORAD): 65244

Object ID (CCSDS): 65244

Country: UNITED STATES OF AMERICA (US)

Current information (Y/N): Y

RCS size: LARGE

Orbital parameters

Period: 93.549 minutes

Inclination: 97.6041 deg

SMA: 6826.293 km

Apoapsis: 448.859 km

Periapsis: 447.457 km

RAAN: 300.8787 deg

Eccentricy: 0.00010267

Argument of periapsis: 96.2688 deg

Mean anomaly: 140.4583 deg

Mean motion: 15.3930736 rev/day

Mean motion (dot): 0.00083946 rev/day2

B* drag term: 0.0021336213 1/REarth

Two-line elements (TLE)

Creation date: Sept. 16, 2025, 7:42 p.m.

Reference frame: TEME

Reference center: EARTH

Epoch: Sept. 16, 2025, 2 p.m. UTC

TLE line 0: 0 STARLINK-34990

TLE line 1: 1 65244U 25179K 25259.58337963 .00083946 00000-0 21336-2 0 9999

TLE line 2: 2 65244 97.6041 300.8787 0001027 96.2688 140.4583 15.39307360 5650

Live tracking on map

Real-time ground track for satellite STARLINK-34990.

In-orbit conjunctions

There are no conjunctions computed for STARLINK-34990, at the moment. Check back to stay up to date, as we update our databases every day.

Go to all conjunctions

Associated space launch

A batch of 24 satellites for the Starlink mega-constellation - SpaceX's project for space-based Internet communication system.

STARLINK-34990 was lifted into orbit during the mission ‘Falcon 9 Block 5 | Starlink Group 17-5’, on board a Falcon 9 space rocket.

The launch took place on Aug. 18, 2025, 4:26 p.m. from Space Launch Complex 4E.

For more information about the launch, click the button.

Launch to space Falcon 9 Block 5 | Starlink Group 17-5
Falcon 9 Block 5 | Starlink Group 17-5

Agency: SpaceX

Status: Launch Successful

Launch date: Aug. 18, 2025, 4:26 p.m. UTC

Rocket: Falcon 9

Launch pad: Space Launch Complex 4E

Location: Vandenberg SFB, CA, USA

...

Latest news about this satellite

News about space launch
Rocket Report: Pivotal Starship test on tap, Firefly wants to be big in Japan

Starship returns to the launch pad for the first time in three months.

News about space launch
Starlink Doubles Up, ISS Gets A New Booster, X-37B Returns, and Starship is GO For Launch This Week

Starlink Doubles Up, ISS Gets A New Booster, X-37B Returns, and Starship is GO For Launch This Week

News about space launch
Live coverage: 24 Starlink satellites to launch from California on 100th Falcon 9 rocket of the year

The Starlink 17-5 mission will add another 24 broadband satellites to the company’s constellation of more than 8,100 currently in orbit. SpaceX is targeting liftoff from pad 4E at 9:23 a.m. PDT (12:23 p.m. EDT / 1623 UTC).


Newsletter sign-up

Weekly statistics, charts and insights to help you stay on top of the space industry.